Time,TemperatureF,DewpointF,PressureIn,WindDirection,WindDirectionDegrees,WindSpeedMPH,WindSpeedGustMPH,Humidity,HourlyPrecipIn,Conditions,Clouds,dailyrainin,SoftwareType,DateUTC
2013-06-29 00:00:00,62.6,62.6,29.53,ENE,68,0.0,0.0,100,0.00,,,0.00,Wunderground v.1.15,2013-06-29 04:00:00,
2013-06-29 00:05:00,62.6,62.6,29.53,ENE,69,0.0,0.0,100,0.00,,,0.00,Wunderground v.1.15,2013-06-29 04:05:00,
2013-06-29 00:10:00,62.6,62.6,29.53,ENE,69,0.0,0.0,100,0.00,,,0.00,Wunderground v.1.15,2013-06-29 04:10:00,
2013-06-29 00:15:00,62.6,62.6,29.53,ENE,68,0.0,0.0,100,0.00,,,0.00,Wunderground v.1.15,2013-06-29 04:15:00,
2013-06-29 00:25:00,62.6,62.6,29.52,ENE,68,0.0,0.0,100,0.00,,,0.00,Wunderground v.1.15,2013-06-29 04:25:00,
2013-06-29 00:35:00,62.7,62.7,29.51,ENE,69,0.0,0.0,100,0.00,,,0.00,Wunderground v.1.15,2013-06-29 04:35:00,
2013-06-29 00:40:00,62.8,62.8,29.51,ENE,68,0.0,0.0,100,0.00,,,0.00,Wunderground v.1.15,2013-06-29 04:40:00,
2013-06-29 00:45:00,62.8,62.8,29.52,ENE,69,0.0,0.0,100,0.00,,,0.00,Wunderground v.1.15,2013-06-29 04:45:00,
2013-06-29 00:55:00,62.6,62.6,29.51,ENE,68,0.0,0.0,100,0.00,,,0.00,Wunderground v.1.15,2013-06-29 04:55:00,
2013-06-29 01:00:00,62.6,62.6,29.51,ENE,69,0.0,0.0,100,0.00,,,0.00,Wunderground v.1.15,2013-06-29 05:00:00,
2013-06-29 01:05:00,62.7,62.7,29.51,ENE,68,0.0,0.0,100,0.00,,,0.00,Wunderground v.1.15,2013-06-29 05:05:00,
2013-06-29 01:15:00,62.8,62.8,29.51,ENE,68,0.0,0.0,100,0.00,,,0.01,Wunderground v.1.15,2013-06-29 05:15:00,
2013-06-29 01:20:00,62.8,62.8,29.51,ENE,69,0.0,0.0,100,0.00,,,0.01,Wunderground v.1.15,2013-06-29 05:20:00,
2013-06-29 01:25:00,62.8,62.8,29.52,ENE,68,0.0,0.0,100,0.09,,,0.02,Wunderground v.1.15,2013-06-29 05:25:00,
2013-06-29 01:35:00,62.7,62.7,29.51,ENE,68,0.0,0.0,100,0.04,,,0.02,Wunderground v.1.15,2013-06-29 05:35:00,
2013-06-29 01:45:00,62.8,62.8,29.51,ENE,69,0.0,0.0,100,0.17,,,0.06,Wunderground v.1.15,2013-06-29 05:45:00,
2013-06-29 01:50:00,62.8,62.8,29.52,ENE,68,0.0,0.0,100,0.13,,,0.07,Wunderground v.1.15,2013-06-29 05:50:00,
2013-06-29 01:55:00,62.8,62.8,29.51,ENE,69,0.0,0.0,100,0.10,,,0.08,Wunderground v.1.15,2013-06-29 05:55:00,
2013-06-29 02:05:00,62.9,62.9,29.51,ENE,69,1.0,3.0,100,0.04,,,0.08,Wunderground v.1.15,2013-06-29 06:05:00,
2013-06-29 02:10:00,63.0,63.0,29.51,ENE,69,2.0,2.0,100,0.04,,,0.09,Wunderground v.1.15,2013-06-29 06:10:00,
2013-06-29 02:15:00,63.0,63.0,29.51,ENE,68,0.0,2.0,100,0.10,,,0.10,Wunderground v.1.15,2013-06-29 06:15:00,
2013-06-29 02:25:00,63.0,63.0,29.51,ENE,68,0.0,0.0,100,0.04,,,0.10,Wunderground v.1.15,2013-06-29 06:25:00,
2013-06-29 02:35:00,63.1,63.1,29.51,ENE,69,0.0,0.0,100,0.00,,,0.10,Wunderground v.1.15,2013-06-29 06:35:00,
2013-06-29 02:40:00,63.2,63.2,29.50,ENE,68,0.0,0.0,100,0.00,,,0.10,Wunderground v.1.15,2013-06-29 06:40:00,
2013-06-29 02:45:00,63.2,63.2,29.50,ENE,68,0.0,0.0,100,0.00,,,0.10,Wunderground v.1.15,2013-06-29 06:45:00,
2013-06-29 02:55:00,63.3,63.3,29.51,ENE,68,0.0,0.0,100,0.00,,,0.10,Wunderground v.1.15,2013-06-29 06:55:00,
2013-06-29 03:05:00,63.4,63.4,29.50,ENE,68,0.0,0.0,100,0.00,,,0.10,Wunderground v.1.15,2013-06-29 07:05:00,
2013-06-29 03:10:00,63.4,63.4,29.50,ENE,68,0.0,0.0,100,0.00,,,0.10,Wunderground v.1.15,2013-06-29 07:10:00,
2013-06-29 03:15:00,63.5,63.5,29.50,ENE,69,0.0,0.0,100,0.00,,,0.10,Wunderground v.1.15,2013-06-29 07:15:00,
2013-06-29 03:25:00,63.3,63.3,29.49,ENE,69,1.0,1.0,100,0.00,,,0.10,Wunderground v.1.15,2013-06-29 07:25:00,
2013-06-29 03:30:00,63.3,63.3,29.50,ENE,68,1.0,1.0,100,0.00,,,0.10,Wunderground v.1.15,2013-06-29 07:30:00,
2013-06-29 03:35:00,63.3,63.3,29.50,ENE,68,0.0,1.0,100,0.00,,,0.10,Wunderground v.1.15,2013-06-29 07:35:00,
2013-06-29 03:45:00,63.5,63.5,29.50,ENE,69,0.0,0.0,100,0.00,,,0.10,Wunderground v.1.15,2013-06-29 07:45:00,
2013-06-29 03:50:00,63.5,63.5,29.50,ENE,68,0.0,0.0,100,0.00,,,0.10,Wunderground v.1.15,2013-06-29 07:50:00,
2013-06-29 03:55:00,63.5,63.5,29.50,ENE,69,0.0,0.0,100,0.00,,,0.10,Wunderground v.1.15,2013-06-29 07:55:00,
2013-06-29 04:05:00,63.6,63.6,29.50,ENE,68,0.0,0.0,100,0.00,,,0.10,Wunderground v.1.15,2013-06-29 08:05:00,
2013-06-29 04:15:00,63.5,63.5,29.50,ENE,68,0.0,0.0,100,0.00,,,0.10,Wunderground v.1.15,2013-06-29 08:15:00,
2013-06-29 04:20:00,63.5,63.5,29.51,ENE,69,0.0,0.0,100,0.00,,,0.10,Wunderground v.1.15,2013-06-29 08:20:00,
2013-06-29 04:30:00,63.4,63.4,29.51,ENE,69,0.0,0.0,100,0.00,,,0.10,Wunderground v.1.15,2013-06-29 08:30:00,
2013-06-29 04:35:00,63.4,63.4,29.51,ENE,69,0.0,0.0,100,0.00,,,0.10,Wunderground v.1.15,2013-06-29 08:35:00,
2013-06-29 04:45:00,63.5,63.5,29.50,ENE,68,0.0,0.0,100,0.00,,,0.10,Wunderground v.1.15,2013-06-29 08:45:00,
2013-06-29 04:50:00,63.5,63.5,29.50,ENE,69,0.0,0.0,100,0.00,,,0.10,Wunderground v.1.15,2013-06-29 08:50:00,
2013-06-29 04:55:00,63.6,63.6,29.50,ENE,68,0.0,0.0,100,0.00,,,0.10,Wunderground v.1.15,2013-06-29 08:55:00,
2013-06-29 05:05:00,63.7,63.7,29.51,ENE,69,0.0,0.0,100,0.00,,,0.11,Wunderground v.1.15,2013-06-29 09:05:00,
2013-06-29 05:10:00,63.9,63.9,29.51,ENE,68,0.0,0.0,100,0.00,,,0.11,Wunderground v.1.15,2013-06-29 09:10:00,
2013-06-29 05:15:00,64.0,64.0,29.51,East,88,0.0,0.0,100,0.00,,,0.11,Wunderground v.1.15,2013-06-29 09:15:00,
2013-06-29 05:25:00,64.0,64.0,29.51,SW,232,0.0,0.0,100,0.00,,,0.11,Wunderground v.1.15,2013-06-29 09:25:00,
2013-06-29 05:30:00,64.1,64.1,29.52,SW,232,0.0,0.0,100,0.00,,,0.11,Wunderground v.1.15,2013-06-29 09:30:00,
2013-06-29 05:40:00,64.0,64.0,29.52,SW,232,0.0,0.0,100,0.00,,,0.11,Wunderground v.1.15,2013-06-29 09:40:00,
2013-06-29 05:45:00,64.0,64.0,29.53,SW,232,0.0,0.0,100,0.00,,,0.11,Wunderground v.1.15,2013-06-29 09:45:00,
2013-06-29 05:55:00,63.9,63.9,29.52,SW,232,0.0,2.0,100,0.00,,,0.11,Wunderground v.1.15,2013-06-29 09:55:00,
2013-06-29 06:00:00,63.9,63.9,29.53,SW,232,0.0,0.0,100,0.00,,,0.11,Wunderground v.1.15,2013-06-29 10:00:00,
2013-06-29 06:05:00,63.9,63.9,29.53,SW,232,0.0,0.0,100,0.00,,,0.11,Wunderground v.1.15,2013-06-29 10:05:00,
2013-06-29 06:15:00,63.5,63.5,29.54,South,188,0.0,1.0,100,0.00,,,0.11,Wunderground v.1.15,2013-06-29 10:15:00,
2013-06-29 06:20:00,63.2,63.2,29.54,South,184,0.0,0.0,100,0.00,,,0.11,Wunderground v.1.15,2013-06-29 10:20:00,
2013-06-29 06:25:00,63.2,63.2,29.54,South,184,0.0,0.0,100,0.00,,,0.11,Wunderground v.1.15,2013-06-29 10:25:00,
2013-06-29 06:35:00,63.5,63.5,29.54,South,184,0.0,0.0,100,0.00,,,0.11,Wunderground v.1.15,2013-06-29 10:35:00,
2013-06-29 06:45:00,63.7,63.7,29.53,South,184,0.0,0.0,100,0.00,,,0.11,Wunderground v.1.15,2013-06-29 10:45:00,
2013-06-29 06:50:00,64.0,64.0,29.54,South,184,0.0,0.0,100,0.00,,,0.11,Wunderground v.1.15,2013-06-29 10:50:00,
2013-06-29 07:00:00,63.9,63.9,29.54,South,184,0.0,0.0,100,0.00,,,0.11,Wunderground v.1.15,2013-06-29 11:00:00,
2013-06-29 07:05:00,64.0,64.0,29.53,South,184,0.0,0.0,100,0.00,,,0.11,Wunderground v.1.15,2013-06-29 11:05:00,
2013-06-29 07:10:00,64.3,64.3,29.53,South,184,0.0,0.0,100,0.00,,,0.11,Wunderground v.1.15,2013-06-29 11:10:00,
2013-06-29 07:15:00,64.5,64.5,29.53,South,184,0.0,0.0,100,0.00,,,0.11,Wunderground v.1.15,2013-06-29 11:15:00,
2013-06-29 07:25:00,64.7,64.7,29.54,South,184,0.0,0.0,100,0.00,,,0.11,Wunderground v.1.15,2013-06-29 11:25:00,
2013-06-29 07:35:00,64.9,64.9,29.54,South,184,0.0,0.0,100,0.00,,,0.11,Wunderground v.1.15,2013-06-29 11:35:00,
2013-06-29 07:45:00,65.1,65.1,29.55,South,184,0.0,0.0,100,0.00,,,0.11,Wunderground v.1.15,2013-06-29 11:45:00,
2013-06-29 07:55:00,65.2,65.2,29.55,South,184,0.0,0.0,100,0.00,,,0.11,Wunderground v.1.15,2013-06-29 11:55:00,
2013-06-29 08:00:00,65.3,65.3,29.55,NE,53,0.0,0.0,100,0.00,,,0.11,Wunderground v.1.15,2013-06-29 12:00:00,
2013-06-29 08:05:00,65.4,65.4,29.55,NE,52,0.0,0.0,100,0.00,,,0.11,Wunderground v.1.15,2013-06-29 12:05:00,
2013-06-29 08:15:00,65.4,65.4,29.55,NE,53,0.0,0.0,100,0.00,,,0.11,Wunderground v.1.15,2013-06-29 12:15:00,
2013-06-29 08:20:00,65.6,65.6,29.55,NE,53,0.0,0.0,100,0.00,,,0.11,Wunderground v.1.15,2013-06-29 12:20:00,
2013-06-29 08:25:00,65.6,65.6,29.55,NE,52,0.0,0.0,100,0.00,,,0.11,Wunderground v.1.15,2013-06-29 12:25:00,
2013-06-29 08:35:00,65.6,65.6,29.55,NE,52,0.0,0.0,100,0.00,,,0.11,Wunderground v.1.15,2013-06-29 12:35:00,
2013-06-29 08:45:00,66.0,66.0,29.55,NE,53,0.0,0.0,100,0.00,,,0.11,Wunderground v.1.15,2013-06-29 12:45:00,
2013-06-29 08:50:00,66.1,66.1,29.55,NE,52,0.0,0.0,100,0.00,,,0.11,Wunderground v.1.15,2013-06-29 12:50:00,
2013-06-29 08:55:00,66.2,66.2,29.55,NE,53,0.0,0.0,100,0.00,,,0.11,Wunderground v.1.15,2013-06-29 12:55:00,
2013-06-29 09:05:00,66.7,66.7,29.55,NE,53,0.0,0.0,100,0.00,,,0.11,Wunderground v.1.15,2013-06-29 13:05:00,
2013-06-29 09:15:00,67.0,67.0,29.55,NE,52,0.0,0.0,100,0.00,,,0.11,Wunderground v.1.15,2013-06-29 13:15:00,
2013-06-29 09:20:00,67.4,67.4,29.55,NE,52,0.0,0.0,100,0.00,,,0.11,Wunderground v.1.15,2013-06-29 13:20:00,
2013-06-29 09:25:00,67.7,67.7,29.54,NE,53,0.0,0.0,100,0.00,,,0.11,Wunderground v.1.15,2013-06-29 13:25:00,
2013-06-29 09:35:00,68.1,68.1,29.54,NE,53,0.0,0.0,100,0.00,,,0.11,Wunderground v.1.15,2013-06-29 13:35:00,
2013-06-29 09:40:00,68.3,68.3,29.54,NE,52,0.0,0.0,100,0.00,,,0.11,Wunderground v.1.15,2013-06-29 13:40:00,
2013-06-29 09:50:00,69.0,69.0,29.55,SE,130,0.0,0.0,100,0.00,,,0.11,Wunderground v.1.15,2013-06-29 13:50:00,
2013-06-29 09:55:00,69.8,69.8,29.55,SSE,162,0.0,0.0,100,0.00,,,0.11,Wunderground v.1.15,2013-06-29 13:55:00,
2013-06-29 10:05:00,69.5,69.5,29.54,South,175,0.0,0.0,100,0.00,,,0.11,Wunderground v.1.15,2013-06-29 14:05:00,
2013-06-29 10:10:00,70.0,70.0,29.55,SE,126,0.0,0.0,100,0.00,,,0.11,Wunderground v.1.15,2013-06-29 14:10:00,
2013-06-29 10:15:00,69.9,69.9,29.55,SSE,157,0.0,0.0,100,0.00,,,0.11,Wunderground v.1.15,2013-06-29 14:15:00,
2013-06-29 10:25:00,70.0,70.0,29.55,SSW,203,0.0,0.0,100,0.00,,,0.11,Wunderground v.1.15,2013-06-29 14:25:00,
2013-06-29 10:35:00,70.2,70.2,29.55,SSW,203,0.0,0.0,100,0.00,,,0.11,Wunderground v.1.15,2013-06-29 14:35:00,
2013-06-29 10:40:00,70.2,70.2,29.55,SSW,206,0.0,0.0,100,0.00,,,0.11,Wunderground v.1.15,2013-06-29 14:40:00,
2013-06-29 10:50:00,70.4,70.4,29.55,WSW,251,0.0,0.0,100,0.00,,,0.11,Wunderground v.1.15,2013-06-29 14:50:00,
2013-06-29 10:55:00,70.6,70.6,29.55,WSW,239,1.0,1.0,100,0.00,,,0.11,Wunderground v.1.15,2013-06-29 14:55:00,
2013-06-29 11:00:00,71.1,71.1,29.55,SW,234,0.0,0.0,100,0.00,,,0.11,Wunderground v.1.15,2013-06-29 15:00:00,
2013-06-29 11:05:00,71.9,71.9,29.55,SW,234,0.0,0.0,100,0.00,,,0.11,Wunderground v.1.15,2013-06-29 15:05:00,
2013-06-29 11:15:00,72.5,71.9,29.54,SW,236,0.0,0.0,98,0.00,,,0.11,Wunderground v.1.15,2013-06-29 15:15:00,
2013-06-29 11:25:00,73.9,72.4,29.54,South,173,0.0,0.0,95,0.00,,,0.11,Wunderground v.1.15,2013-06-29 15:25:00,
2013-06-29 11:35:00,73.9,71.4,29.54,WSW,247,0.0,0.0,92,0.00,,,0.11,Wunderground v.1.15,2013-06-29 15:35:00,
2013-06-29 11:45:00,74.1,71.3,29.54,South,188,0.0,0.0,91,0.00,,,0.11,Wunderground v.1.15,2013-06-29 15:45:00,
2013-06-29 11:50:00,74.5,70.7,29.54,South,186,0.0,0.0,88,0.00,,,0.11,Wunderground v.1.15,2013-06-29 15:50:00,
2013-06-29 11:55:00,74.8,71.0,29.54,WSW,242,1.0,1.0,88,0.00,,,0.11,Wunderground v.1.15,2013-06-29 15:55:00,
2013-06-29 12:05:00,75.2,70.4,29.54,SSW,196,1.0,1.0,85,0.00,,,0.11,Wunderground v.1.15,2013-06-29 16:05:00,
2013-06-29 12:10:00,75.6,71.8,29.54,South,186,1.0,1.0,88,0.00,,,0.11,Wunderground v.1.15,2013-06-29 16:10:00,
2013-06-29 12:15:00,75.7,70.5,29.54,SSW,197,1.0,1.0,84,0.00,,,0.11,Wunderground v.1.15,2013-06-29 16:15:00,
2013-06-29 12:25:00,75.5,70.7,29.54,South,174,1.0,4.0,85,0.00,,,0.11,Wunderground v.1.15,2013-06-29 16:25:00,
2013-06-29 12:35:00,76.1,71.3,29.54,South,191,1.0,1.0,85,0.00,,,0.11,Wunderground v.1.15,2013-06-29 16:35:00,
2013-06-29 12:40:00,76.4,71.9,29.54,WSW,248,1.0,3.0,86,0.00,,,0.11,Wunderground v.1.15,2013-06-29 16:40:00,
2013-06-29 12:45:00,76.9,71.7,29.54,SW,215,1.0,3.0,84,0.00,,,0.11,Wunderground v.1.15,2013-06-29 16:45:00,
2013-06-29 12:55:00,76.3,70.8,29.54,SSE,167,0.0,0.0,83,0.00,,,0.11,Wunderground v.1.15,2013-06-29 16:55:00,
2013-06-29 13:05:00,76.9,71.0,29.53,SSE,161,1.0,4.0,82,0.00,,,0.11,Wunderground v.1.15,2013-06-29 17:05:00,
2013-06-29 13:10:00,76.3,70.4,29.54,South,191,1.0,1.0,82,0.00,,,0.11,Wunderground v.1.15,2013-06-29 17:10:00,
2013-06-29 13:15:00,75.7,70.2,29.54,SSW,207,1.0,1.0,83,0.00,,,0.11,Wunderground v.1.15,2013-06-29 17:15:00,
2013-06-29 13:25:00,75.6,70.4,29.53,SE,135,1.0,2.0,84,0.00,,,0.11,Wunderground v.1.15,2013-06-29 17:25:00,
2013-06-29 13:30:00,76.0,70.8,29.53,SW,216,0.0,0.0,84,0.00,,,0.11,Wunderground v.1.15,2013-06-29 17:30:00,
2013-06-29 13:35:00,77.0,71.1,29.53,WSW,242,1.0,1.0,82,0.00,,,0.11,Wunderground v.1.15,2013-06-29 17:35:00,
2013-06-29 13:45:00,78.0,70.6,29.52,South,189,1.0,1.0,78,0.00,,,0.11,Wunderground v.1.15,2013-06-29 17:45:00,
2013-06-29 13:55:00,78.2,70.0,29.52,SSW,203,1.0,1.0,76,0.00,,,0.11,Wunderground v.1.15,2013-06-29 17:55:00,
2013-06-29 14:00:00,78.7,70.5,29.52,SW,217,1.0,5.0,76,0.00,,,0.11,Wunderground v.1.15,2013-06-29 18:00:00,
2013-06-29 14:05:00,78.7,70.5,29.52,SW,230,1.0,5.0,76,0.00,,,0.11,Wunderground v.1.15,2013-06-29 18:05:00,
2013-06-29 14:15:00,78.9,69.1,29.52,South,169,2.0,9.0,72,0.00,,,0.11,Wunderground v.1.15,2013-06-29 18:15:00,
2013-06-29 14:20:00,78.7,69.3,29.52,SW,225,3.0,7.0,73,0.00,,,0.11,Wunderground v.1.15,2013-06-29 18:20:00,
2013-06-29 14:25:00,79.0,70.0,29.52,SW,223,3.0,7.0,74,0.00,,,0.11,Wunderground v.1.15,2013-06-29 18:25:00,
2013-06-29 14:35:00,79.9,69.2,29.52,West,268,2.0,4.0,70,0.00,,,0.11,Wunderground v.1.15,2013-06-29 18:35:00,
2013-06-29 14:40:00,80.3,70.0,29.52,WSW,246,2.0,2.0,71,0.00,,,0.11,Wunderground v.1.15,2013-06-29 18:40:00,
2013-06-29 14:45:00,80.6,70.3,29.53,West,264,2.0,15.0,71,0.00,,,0.11,Wunderground v.1.15,2013-06-29 18:45:00,
2013-06-29 14:55:00,79.9,69.7,29.52,SW,221,4.0,4.0,71,0.00,,,0.11,Wunderground v.1.15,2013-06-29 18:55:00,
2013-06-29 15:05:00,80.6,69.5,29.53,SSW,211,1.0,3.0,69,0.00,,,0.11,Wunderground v.1.15,2013-06-29 19:05:00,
2013-06-29 15:15:00,81.1,69.1,29.52,WSW,238,2.0,2.0,67,0.00,,,0.11,Wunderground v.1.15,2013-06-29 19:15:00,
2013-06-29 15:25:00,81.0,68.1,29.53,South,191,2.0,7.0,65,0.00,,,0.11,Wunderground v.1.15,2013-06-29 19:25:00,
2013-06-29 15:35:00,81.3,68.9,29.52,SSW,211,2.0,6.0,66,0.00,,,0.11,Wunderground v.1.15,2013-06-29 19:35:00,
2013-06-29 15:40:00,80.3,66.1,29.53,SSW,206,4.0,4.0,62,0.00,,,0.11,Wunderground v.1.15,2013-06-29 19:40:00,
2013-06-29 15:45:00,78.8,66.5,29.52,WSW,249,4.0,4.0,66,0.00,,,0.11,Wunderground v.1.15,2013-06-29 19:45:00,
2013-06-29 15:55:00,78.7,68.9,29.53,SSW,210,1.0,3.0,72,0.00,,,0.11,Wunderground v.1.15,2013-06-29 19:55:00,
2013-06-29 16:00:00,80.0,68.9,29.52,South,171,0.0,0.0,69,0.00,,,0.11,Wunderground v.1.15,2013-06-29 20:00:00,
2013-06-29 16:05:00,80.5,67.6,29.53,SW,223,1.0,4.0,65,0.00,,,0.11,Wunderground v.1.15,2013-06-29 20:05:00,
2013-06-29 16:15:00,80.4,69.3,29.53,South,184,3.0,3.0,69,0.00,,,0.11,Wunderground v.1.15,2013-06-29 20:15:00,
2013-06-29 16:25:00,80.5,67.2,29.53,SW,230,5.0,5.0,64,0.00,,,0.11,Wunderground v.1.15,2013-06-29 20:25:00,
2013-06-29 16:30:00,80.5,68.1,29.53,SSW,202,4.0,4.0,66,0.00,,,0.11,Wunderground v.1.15,2013-06-29 20:30:00,
2013-06-29 16:35:00,80.6,67.3,29.53,SW,227,4.0,12.0,64,0.00,,,0.11,Wunderground v.1.15,2013-06-29 20:35:00,
2013-06-29 16:45:00,80.2,68.2,29.54,SW,226,2.0,11.0,67,0.00,,,0.11,Wunderground v.1.15,2013-06-29 20:45:00,
2013-06-29 16:55:00,79.1,68.5,29.53,South,182,3.0,4.0,70,0.00,,,0.11,Wunderground v.1.15,2013-06-29 20:55:00,
2013-06-29 17:00:00,79.6,69.0,29.54,SW,230,1.0,3.0,70,0.00,,,0.11,Wunderground v.1.15,2013-06-29 21:00:00,
2013-06-29 17:05:00,79.7,68.6,29.54,SSW,211,1.0,3.0,69,0.00,,,0.11,Wunderground v.1.15,2013-06-29 21:05:00,
2013-06-29 17:15:00,80.1,69.4,29.54,SSW,212,1.0,1.0,70,0.00,,,0.11,Wunderground v.1.15,2013-06-29 21:15:00,
2013-06-29 17:20:00,79.7,68.6,29.54,South,187,2.0,4.0,69,0.00,,,0.11,Wunderground v.1.15,2013-06-29 21:20:00,
2013-06-29 17:25:00,79.0,68.8,29.54,WSW,253,2.0,5.0,71,0.00,,,0.11,Wunderground v.1.15,2013-06-29 21:25:00,
2013-06-29 17:35:00,78.4,67.4,29.55,SSE,168,2.0,6.0,69,0.00,,,0.11,Wunderground v.1.15,2013-06-29 21:35:00,
2013-06-29 17:45:00,79.1,68.5,29.55,WSW,246,1.0,6.0,70,0.00,,,0.11,Wunderground v.1.15,2013-06-29 21:45:00,
2013-06-29 17:50:00,79.4,68.3,29.55,WSW,249,1.0,1.0,69,0.00,,,0.11,Wunderground v.1.15,2013-06-29 21:50:00,
2013-06-29 17:55:00,79.3,68.7,29.55,South,184,1.0,1.0,70,0.00,,,0.11,Wunderground v.1.15,2013-06-29 21:55:00,
2013-06-29 18:05:00,78.1,67.5,29.55,SSW,201,1.0,1.0,70,0.00,,,0.11,Wunderground v.1.15,2013-06-29 22:05:00,
2013-06-29 18:10:00,77.5,67.8,29.56,SSW,196,0.0,0.0,72,0.00,,,0.11,Wunderground v.1.15,2013-06-29 22:10:00,
2013-06-29 18:15:00,77.2,67.5,29.56,SW,219,0.0,1.0,72,0.00,,,0.11,Wunderground v.1.15,2013-06-29 22:15:00,
2013-06-29 18:25:00,77.6,68.3,29.55,South,183,1.0,1.0,73,0.00,,,0.11,Wunderground v.1.15,2013-06-29 22:25:00,
2013-06-29 18:30:00,77.5,68.6,29.55,WSW,254,1.0,1.0,74,0.00,,,0.11,Wunderground v.1.15,2013-06-29 22:30:00,
2013-06-29 18:35:00,77.3,68.4,29.55,SW,225,1.0,5.0,74,0.00,,,0.11,Wunderground v.1.15,2013-06-29 22:35:00,
2013-06-29 18:45:00,76.9,66.8,29.55,SSE,160,3.0,4.0,71,0.00,,,0.11,Wunderground v.1.15,2013-06-29 22:45:00,
2013-06-29 18:55:00,76.2,66.9,29.55,SSW,194,2.0,3.0,73,0.00,,,0.11,Wunderground v.1.15,2013-06-29 22:55:00,
2013-06-29 19:00:00,76.1,67.2,29.56,WSW,244,1.0,1.0,74,0.00,,,0.11,Wunderground v.1.15,2013-06-29 23:00:00,
2013-06-29 19:10:00,76.1,67.2,29.56,WSW,237,1.0,1.0,74,0.00,,,0.11,Wunderground v.1.15,2013-06-29 23:10:00,
2013-06-29 19:15:00,75.9,67.0,29.56,SSW,211,1.0,1.0,74,0.00,,,0.11,Wunderground v.1.15,2013-06-29 23:15:00,
2013-06-29 19:20:00,75.6,67.1,29.57,SW,221,1.0,1.0,75,0.00,,,0.11,Wunderground v.1.15,2013-06-29 23:20:00,
2013-06-29 19:30:00,75.1,67.4,29.57,SSW,210,0.0,0.0,77,0.00,,,0.11,Wunderground v.1.15,2013-06-29 23:30:00,
2013-06-29 19:35:00,74.9,67.2,29.57,SSW,194,0.0,2.0,77,0.00,,,0.11,Wunderground v.1.15,2013-06-29 23:35:00,
2013-06-29 19:45:00,74.9,67.2,29.58,SSW,205,1.0,3.0,77,0.00,,,0.11,Wunderground v.1.15,2013-06-29 23:45:00,
2013-06-29 19:50:00,74.8,67.5,29.58,SSW,201,1.0,1.0,78,0.00,,,0.11,Wunderground v.1.15,2013-06-29 23:50:00,
2013-06-29 19:55:00,74.5,67.2,29.58,SSW,206,0.0,1.0,78,0.00,,,0.11,Wunderground v.1.15,2013-06-29 23:55:00,
2013-06-29 20:05:00,73.8,67.2,29.58,SW,236,1.0,1.0,80,0.00,,,0.11,Wunderground v.1.15,2013-06-30 00:05:00,
2013-06-29 20:10:00,73.5,66.9,29.58,WSW,239,0.0,0.0,80,0.00,,,0.11,Wunderground v.1.15,2013-06-30 00:10:00,
2013-06-29 20:15:00,73.3,67.1,29.59,South,190,0.0,0.0,81,0.00,,,0.11,Wunderground v.1.15,2013-06-30 00:15:00,
2013-06-29 20:25:00,73.2,67.0,29.59,SSW,202,1.0,4.0,81,0.00,,,0.11,Wunderground v.1.15,2013-06-30 00:25:00,
2013-06-29 20:30:00,73.1,66.9,29.59,SSW,209,1.0,1.0,81,0.00,,,0.11,Wunderground v.1.15,2013-06-30 00:30:00,
2013-06-29 20:35:00,73.0,66.8,29.59,SSW,211,0.0,1.0,81,0.00,,,0.11,Wunderground v.1.15,2013-06-30 00:35:00,
2013-06-29 20:45:00,73.0,67.2,29.59,SW,215,0.0,0.0,82,0.00,,,0.11,Wunderground v.1.15,2013-06-30 00:45:00,
2013-06-29 20:55:00,72.8,67.7,29.60,South,190,0.0,0.0,84,0.00,,,0.11,Wunderground v.1.15,2013-06-30 00:55:00,
2013-06-29 21:00:00,72.1,67.7,29.61,South,190,0.0,0.0,86,0.00,,,0.11,Wunderground v.1.15,2013-06-30 01:00:00,
2013-06-29 21:05:00,71.5,67.1,29.61,South,190,0.0,1.0,86,0.00,,,0.11,Wunderground v.1.15,2013-06-30 01:05:00,
2013-06-29 21:15:00,71.2,67.1,29.61,SSW,199,0.0,3.0,87,0.00,,,0.11,Wunderground v.1.15,2013-06-30 01:15:00,
2013-06-29 21:25:00,70.7,67.0,29.62,SSW,199,0.0,0.0,88,0.00,,,0.11,Wunderground v.1.15,2013-06-30 01:25:00,
2013-06-29 21:30:00,70.3,66.9,29.63,SSW,199,0.0,0.0,89,0.00,,,0.11,Wunderground v.1.15,2013-06-30 01:30:00,
2013-06-29 21:40:00,69.3,66.6,29.63,SSW,199,0.0,0.0,91,0.00,,,0.11,Wunderground v.1.15,2013-06-30 01:40:00,
2013-06-29 21:45:00,68.9,66.2,29.63,SSW,199,0.0,0.0,91,0.00,,,0.11,Wunderground v.1.15,2013-06-30 01:45:00,
2013-06-29 21:50:00,68.5,65.8,29.63,SSW,199,0.0,0.0,91,0.00,,,0.11,Wunderground v.1.15,2013-06-30 01:50:00,
2013-06-29 22:00:00,68.1,66.0,29.64,SSW,199,0.0,0.0,93,0.00,,,0.11,Wunderground v.1.15,2013-06-30 02:00:00,
2013-06-29 22:05:00,67.9,65.8,29.64,SSW,199,0.0,0.0,93,0.00,,,0.11,Wunderground v.1.15,2013-06-30 02:05:00,
2013-06-29 22:15:00,67.5,65.7,29.63,SSW,199,0.0,0.0,94,0.00,,,0.11,Wunderground v.1.15,2013-06-30 02:15:00,
2013-06-29 22:20:00,67.4,65.6,29.64,SSW,199,0.0,0.0,94,0.00,,,0.11,Wunderground v.1.15,2013-06-30 02:20:00,
2013-06-29 22:25:00,67.2,65.4,29.64,SSW,199,0.0,0.0,94,0.00,,,0.11,Wunderground v.1.15,2013-06-30 02:25:00,
2013-06-29 22:35:00,67.0,65.5,29.64,SSW,199,0.0,0.0,95,0.00,,,0.11,Wunderground v.1.15,2013-06-30 02:35:00,
2013-06-29 22:40:00,67.0,65.5,29.64,SSW,199,0.0,0.0,95,0.00,,,0.11,Wunderground v.1.15,2013-06-30 02:40:00,
2013-06-29 22:45:00,67.1,65.6,29.65,SSW,199,0.0,0.0,95,0.00,,,0.11,Wunderground v.1.15,2013-06-30 02:45:00,
2013-06-29 22:55:00,67.1,65.9,29.66,SSW,199,0.0,0.0,96,0.00,,,0.11,Wunderground v.1.15,2013-06-30 02:55:00,
2013-06-29 23:05:00,67.0,65.8,29.66,SSW,199,0.0,0.0,96,0.00,,,0.11,Wunderground v.1.15,2013-06-30 03:05:00,
2013-06-29 23:10:00,66.9,65.7,29.66,SSW,199,0.0,0.0,96,0.00,,,0.11,Wunderground v.1.15,2013-06-30 03:10:00,
2013-06-29 23:15:00,66.8,65.6,29.66,SSW,199,0.0,0.0,96,0.00,,,0.11,Wunderground v.1.15,2013-06-30 03:15:00,
2013-06-29 23:25:00,66.8,65.6,29.66,SSW,199,0.0,0.0,96,0.00,,,0.11,Wunderground v.1.15,2013-06-30 03:25:00,
2013-06-29 23:35:00,67.0,65.8,29.66,SSW,199,0.0,0.0,96,0.00,,,0.11,Wunderground v.1.15,2013-06-30 03:35:00,
2013-06-29 23:45:00,67.0,65.8,29.66,SSW,199,0.0,0.0,96,0.00,,,0.11,Wunderground v.1.15,2013-06-30 03:45:00,
2013-06-29 23:55:00,67.1,65.9,29.66,SSW,199,0.0,0.0,96,0.00,,,0.12,Wunderground v.1.15,2013-06-30 03:55:00,